Change the Weather History Date:

Thursday, November 14, 2013

  Actual Average Record
Temperature  
Mean Temperature 40 °F 40 °F  
Max Temperature 48 °F 47 °F 70 °F (1971)
Min Temperature 32 °F 33 °F 7 °F (1959)
Degree Days  
Heating Degree Days 25 25  
Month to date heating degree days 327 310  
Since 1 July heating degree days 867 895  
Cooling Degree Days 0 0  
Month to date cooling degree days 0 0  
Year to date cooling degree days 688 641  
Moisture  
Dew Point 24 °F    
Average Humidity 50    
Maximum Humidity 59    
Minimum Humidity 40    
Precipitation  
Precipitation 0.00 in 0.10 in 1.24 in (1926)
Month to date precipitation 0.66 1.27  
Year to date precipitation 35.92 31.28  
Snow  
Snow 0.00 in 0.10 in 1.50 in (1959)
Month to date snowfall 1.2 0.4  
Since 1 July snowfall 1.2 0.7  
Since 1 September snowfall 1.2 0.7  
Snow Depth 0.00 in    
Sea Level Pressure  
Sea Level Pressure 29.97 in    
Wind  
Wind Speed 14 mph (SW)    
Max Wind Speed 22 mph    
Max Gust Speed 33 mph    
Visibility 10 miles    
Events      
T = Trace of Precipitation, MM = Missing Value Source: NWS Daily Summary

Daily Weather History Graph

Daily Weather History Graph

Search for Another Location

Airport or City:

Trip Planner

Search our weather history database for the weather conditions in past years. The results will help you decide how hot, cold, wet, or windy it might be!

Date:

Astronomy

Nov. 14, 2013 Rise Set
Actual Time 6:42 AM CST 4:28 PM CST
Civil Twilight 6:12 AM CST 4:59 PM CST
Nautical Twilight 5:38 AM CST 5:33 PM CST
Astronomical Twilight 5:04 AM CST 6:06 PM CST
Moon 2:53 PM CST (11/14) 3:33 AM CST (11/14)
Length of Visible Light 10h 46m
Length of Day
9h 45m
Waxing Gibbous, 92% of the Moon is Illuminated
Nov 14
Waxing Gibbous
Nov 17
Full
Nov 25
Last Quarter
Dec 2
New
Dec 9
First Quarter

Hourly Weather History & Observations

Time (CST) Temp. Windchill Dew Point Humidity Pressure Visibility Wind Dir Wind Speed Gust Speed Precip Events Conditions
12:52 AM 36.0 °F 25.3 °F 17.1 °F 46% 30.07 in 10.0 mi WSW 19.6 mph 28.8 mph N/A   Clear
1:52 AM 36.0 °F 27.5 °F 17.1 °F 46% 30.06 in 10.0 mi SW 12.7 mph 24.2 mph N/A   Clear
2:52 AM 34.0 °F 24.6 °F 18.0 °F 52% 30.05 in 10.0 mi SW 13.8 mph - N/A   Clear
3:52 AM 34.0 °F 23.4 °F 18.0 °F 52% 30.04 in 10.0 mi SW 17.3 mph 24.2 mph N/A   Clear
4:52 AM 33.1 °F 23.9 °F 19.0 °F 56% 30.03 in 10.0 mi SW 12.7 mph - N/A   Clear
5:52 AM 33.1 °F 24.4 °F 19.0 °F 56% 30.03 in 10.0 mi SSW 11.5 mph - N/A   Clear
6:52 AM 33.1 °F 24.4 °F 19.0 °F 56% 30.02 in 10.0 mi SW 11.5 mph - N/A   Scattered Clouds
7:52 AM 35.1 °F 25.5 °F 19.9 °F 54% 30.01 in 10.0 mi SW 15.0 mph 24.2 mph N/A   Mostly Cloudy
8:52 AM 37.9 °F 29.2 °F 21.0 °F 51% 30.00 in 10.0 mi WSW 15.0 mph 21.9 mph N/A   Mostly Cloudy
9:52 AM 41.0 °F 33.1 °F 21.9 °F 47% 29.99 in 10.0 mi WSW 15.0 mph 27.6 mph N/A   Mostly Cloudy
10:52 AM 44.1 °F 36.8 °F 23.0 °F 43% 29.97 in 10.0 mi SW 16.1 mph 24.2 mph N/A   Mostly Cloudy
11:52 AM 46.0 °F 39.9 °F 25.0 °F 44% 29.94 in 10.0 mi SW 13.8 mph 26.5 mph N/A   Mostly Cloudy
12:52 PM 46.9 °F - 25.0 °F 42% 29.92 in 10.0 mi WSW 16.1 mph 25.3 mph N/A   Mostly Cloudy
1:52 PM 46.9 °F - 26.1 °F 44% 29.92 in 10.0 mi SW 17.3 mph 24.2 mph N/A   Mostly Cloudy
2:52 PM 46.9 °F - 26.1 °F 44% 29.92 in 10.0 mi SW 16.1 mph 24.2 mph N/A   Mostly Cloudy
3:52 PM 46.9 °F - 27.0 °F 46% 29.93 in 10.0 mi WSW 10.4 mph - N/A   Mostly Cloudy
4:52 PM 44.1 °F 40.8 °F 28.0 °F 53% 29.95 in 10.0 mi SW 5.8 mph - N/A   Mostly Cloudy
5:52 PM 43.0 °F 38.2 °F 28.0 °F 56% 29.96 in 10.0 mi SW 8.1 mph - N/A   Mostly Cloudy
6:52 PM 42.1 °F 37.1 °F 28.0 °F 58% 29.94 in 10.0 mi SSW 8.1 mph - N/A   Mostly Cloudy
7:52 PM 43.0 °F 36.4 °F 28.0 °F 56% 29.94 in 10.0 mi SW 12.7 mph - N/A   Mostly Cloudy
8:52 PM 42.1 °F 34.2 °F 27.0 °F 55% 29.94 in 10.0 mi SW 16.1 mph - N/A   Mostly Cloudy
9:52 PM 41.0 °F 34.3 °F 27.0 °F 57% 29.92 in 10.0 mi SW 11.5 mph - N/A   Mostly Cloudy
10:52 PM 39.9 °F 32.5 °F 26.1 °F 58% 29.92 in 10.0 mi SW 12.7 mph - N/A   Mostly Cloudy
11:52 PM 41.0 °F 34.3 °F 26.1 °F 55% 29.92 in 10.0 mi SW 11.5 mph - N/A   Mostly Cloudy